Weather reports worldwide

Advertisment
Belgrad, Serbia (13274): temperature & dewpoint: 23.07.2017 13:00:00 - 29.07.2017 13:00:00 (CEST)Belgrad, Serbia (13274): wind speed: 23.07.2017 13:00:00 - 29.07.2017 13:00:00 (CEST)Belgrad, Serbia (13274): wind direction: 23.07.2017 13:00:00 - 29.07.2017 13:00:00 (CEST)Belgrad, Serbia (13274): reduced air pressure: 23.07.2017 13:00:00 - 29.07.2017 13:00:00 (CEST)Belgrad, Serbia (13274): visibility: 23.07.2017 13:00:00 - 29.07.2017 13:00:00 (CEST)
Date & Time tt [°C] td [°C] ff [km/h] ff [kn] dd ppp [hPa] vv [km]
29.07.2017 13:00:00 - - - - - - -
29.07.2017 12:00:00 - - - - - - -
29.07.2017 11:00:00 25,9 13,6 4 2 W 1018,4 20
29.07.2017 10:00:00 - - - - - - -
29.07.2017 09:00:00 - - - - - - -
29.07.2017 08:00:00 20,6 14,0 4 2 W 1018,1 20
29.07.2017 07:00:00 - - - - - - -
29.07.2017 06:00:00 - - - - - - -
29.07.2017 05:00:00 19,7 14,3 4 2 W 1016,5 20
29.07.2017 04:00:00 - - - - - - -
29.07.2017 03:00:00 - - - - - - -
29.07.2017 02:00:00 20,4 14,4 4 2 WSW 1015,6 20
29.07.2017 01:00:00 - - - - - - -
29.07.2017 00:00:00 - - - - - - -
28.07.2017 23:00:00 22,8 14,7 4 2 W 1014,2 20
28.07.2017 22:00:00 - - - - - - -
28.07.2017 21:00:00 - - - - - - -
28.07.2017 20:00:00 26,2 13,6 4 2 NNW 1012,7 20
28.07.2017 19:00:00 - - - - - - -
28.07.2017 18:00:00 - - - - - - -
28.07.2017 17:00:00 28,4 13,4 7 4 NNW 1011,6 20
28.07.2017 16:00:00 - - - - - - -
28.07.2017 15:00:00 - - - - - - -
28.07.2017 14:00:00 25,6 13,2 7 4 NW 1012,2 20
28.07.2017 13:00:00 - - - - - - -
28.07.2017 12:00:00 - - - - - - -
28.07.2017 11:00:00 24,5 12,4 11 6 NNW 1012,3 20
28.07.2017 10:00:00 - - - - - - -
28.07.2017 09:00:00 - - - - - - -
28.07.2017 08:00:00 17,6 13,4 4 2 W 1012,6 20
28.07.2017 07:00:00 - - - - - - -
28.07.2017 06:00:00 - - - - - - -
28.07.2017 05:00:00 15,9 13,4 4 2 WSW 1012,0 20
28.07.2017 04:00:00 - - - - - - -
28.07.2017 03:00:00 - - - - - - -
28.07.2017 02:00:00 17,6 14,3 4 2 W 1011,6 20
28.07.2017 01:00:00 - - - - - - -
28.07.2017 00:00:00 - - - - - - -
27.07.2017 23:00:00 19,1 13,2 4 2 WNW 1011,2 20
27.07.2017 22:00:00 - - - - - - -
27.07.2017 21:00:00 - - - - - - -
27.07.2017 20:00:00 20,5 13,2 7 4 WNW 1010,6 20
27.07.2017 19:00:00 - - - - - - -
27.07.2017 18:00:00 - - - - - - -
27.07.2017 17:00:00 21,2 14,5 7 4 WNW 1009,9 20
27.07.2017 16:00:00 - - - - - - -
27.07.2017 15:00:00 - - - - - - -
27.07.2017 14:00:00 22,7 13,6 7 4 N 1009,8 20
27.07.2017 13:00:00 - - - - - - -
27.07.2017 12:00:00 - - - - - - -
27.07.2017 11:00:00 22,0 12,5 7 4 W 1010,0 20
27.07.2017 10:00:00 - - - - - - -
27.07.2017 09:00:00 - - - - - - -
27.07.2017 08:00:00 17,0 13,4 4 2 W 1009,6 20
27.07.2017 07:00:00 - - - - - - -
27.07.2017 06:00:00 - - - - - - -
27.07.2017 05:00:00 16,9 12,4 4 2 W 1008,1 20
27.07.2017 04:00:00 - - - - - - -
27.07.2017 03:00:00 - - - - - - -
27.07.2017 02:00:00 17,4 11,7 7 4 NNW 1007,8 20
27.07.2017 01:00:00 - - - - - - -
27.07.2017 00:00:00 - - - - - - -
26.07.2017 23:00:00 20,7 11,5 4 2 SE 1005,7 20
26.07.2017 22:00:00 - - - - - - -
26.07.2017 21:00:00 - - - - - - -
26.07.2017 20:00:00 23,2 10,9 4 2 ESE 1004,6 20
26.07.2017 19:00:00 - - - - - - -
26.07.2017 18:00:00 - - - - - - -
26.07.2017 17:00:00 26,0 11,2 7 4 E 1005,0 20
26.07.2017 16:00:00 - - - - - - -
26.07.2017 15:00:00 - - - - - - -
26.07.2017 14:00:00 25,1 11,1 7 4 E 1006,0 20
26.07.2017 13:00:00 - - - - - - -
26.07.2017 12:00:00 - - - - - - -
26.07.2017 11:00:00 20,6 11,4 4 2 SW 1006,8 20
26.07.2017 10:00:00 - - - - - - -
26.07.2017 09:00:00 - - - - - - -
26.07.2017 08:00:00 17,7 14,7 7 4 WSW 1006,6 20
26.07.2017 07:00:00 - - - - - - -
26.07.2017 06:00:00 - - - - - - -
26.07.2017 05:00:00 18,0 14,5 4 2 SW 1006,2 20
26.07.2017 04:00:00 - - - - - - -
26.07.2017 03:00:00 - - - - - - -
26.07.2017 02:00:00 17,7 14,7 4 2 SSE 1006,0 20
26.07.2017 01:00:00 - - - - - - -
26.07.2017 00:00:00 - - - - - - -
25.07.2017 23:00:00 19,2 13,4 0 0 N 1006,0 20
25.07.2017 22:00:00 - - - - - - -
25.07.2017 21:00:00 - - - - - - -
25.07.2017 20:00:00 21,9 12,7 4 2 W 1005,4 20
25.07.2017 19:00:00 - - - - - - -
25.07.2017 18:00:00 - - - - - - -
25.07.2017 17:00:00 23,2 12,8 7 4 WNW 1005,3 20
25.07.2017 16:00:00 - - - - - - -
25.07.2017 15:00:00 - - - - - - -
25.07.2017 14:00:00 19,3 16,1 7 4 WNW 1005,3 10
25.07.2017 13:00:00 - - - - - - -
25.07.2017 12:00:00 - - - - - - -
25.07.2017 11:00:00 19,1 16,8 4 2 NW 1004,3 10
25.07.2017 10:00:00 - - - - - - -
25.07.2017 09:00:00 - - - - - - -
25.07.2017 08:00:00 20,1 17,8 7 4 W 1003,3 10
25.07.2017 07:00:00 - - - - - - -
25.07.2017 06:00:00 - - - - - - -
25.07.2017 05:00:00 20,9 17,9 7 4 NW 1003,1 20
25.07.2017 04:00:00 - - - - - - -
25.07.2017 03:00:00 - - - - - - -
25.07.2017 02:00:00 23,2 17,8 4 2 W 999,8 20
25.07.2017 01:00:00 - - - - - - -
25.07.2017 00:00:00 - - - - - - -
24.07.2017 23:00:00 26,2 18,9 14 8 ESE 1000,0 10
24.07.2017 22:00:00 - - - - - - -
24.07.2017 21:00:00 - - - - - - -
24.07.2017 20:00:00 33,4 15,8 7 4 NE 1000,3 20
24.07.2017 19:00:00 - - - - - - -
24.07.2017 18:00:00 - - - - - - -
24.07.2017 17:00:00 36,8 14,5 7 4 S 1001,4 20
24.07.2017 16:00:00 - - - - - - -
24.07.2017 15:00:00 - - - - - - -
24.07.2017 14:00:00 34,0 16,6 4 2 NE 1005,1 20
24.07.2017 13:00:00 - - - - - - -
24.07.2017 12:00:00 - - - - - - -
24.07.2017 11:00:00 30,2 17,9 4 2 W 1009,0 20
24.07.2017 10:00:00 - - - - - - -
24.07.2017 09:00:00 - - - - - - -
24.07.2017 08:00:00 27,2 17,1 4 2 SW 1009,3 20
24.07.2017 07:00:00 - - - - - - -
24.07.2017 06:00:00 - - - - - - -
24.07.2017 05:00:00 25,1 18,6 11 6 NNE 1011,0 20
24.07.2017 04:00:00 - - - - - - -
24.07.2017 03:00:00 - - - - - - -
24.07.2017 02:00:00 26,7 17,5 7 4 N 1010,9 20
24.07.2017 01:00:00 - - - - - - -
24.07.2017 00:00:00 - - - - - - -
23.07.2017 23:00:00 29,4 16,0 4 2 NE 1011,2 20
23.07.2017 22:00:00 - - - - - - -
23.07.2017 21:00:00 - - - - - - -
23.07.2017 20:00:00 32,1 16,5 7 4 NNE 1010,9 20
23.07.2017 19:00:00 - - - - - - -
23.07.2017 18:00:00 - - - - - - -
23.07.2017 17:00:00 35,6 14,9 7 4 N 1010,3 20
23.07.2017 16:00:00 - - - - - - -
23.07.2017 15:00:00 - - - - - - -
23.07.2017 14:00:00 34,8 16,5 7 4 W 1011,8 20
23.07.2017 13:00:00 - - - - - - -

tt = temperature
td = dewpoint
ff = wind speed
dd = wind direction
ppp = reduced air pressure
vv = visibility

Next stations